Regional Weather Roundup
Issued by NWS

Home | Current Version | Previous Version | Graphics & Text | Print | Product List | Glossary On
Versions: 1 2 3 4 5 6 7 8 9 10 11 12 13 14 15 16 17 18 19 20 21 22 23 24 25 26 27 28 29 30 31 32 33 34 35 36 37 38 39 40 41 42 43 44 45 46 47 48 49 50
000
ASUS43 KBIS 230802
RWRND

NORTH DAKOTA REGIONAL WEATHER ROUNDUP
NATIONAL WEATHER SERVICE BISMARCK ND
200 AM CST THU FEB 23 2017

NOTE: "FAIR" INDICATES FEW OR NO CLOUDS BELOW 12,000 FEET WITH NO
SIGNIFICANT WEATHER AND/OR OBSTRUCTIONS TO VISIBILITY.


NDZ001>003-009>011-017-230900-
NORTHWEST NORTH DAKOTA

CITY           SKY/WX    TMP DP  RH WIND       PRES   REMARKS
WILLISTON      CLOUDY    28  25  88 CALM      30.00S
MINOT          CLOUDY    33  28  81 W5        29.97F
MINOT AFB      CLOUDY    30  28  90 NW6       29.97F
$$

NDZ018>021-031>035-040>046-230900-
SOUTHWEST NORTH DAKOTA

CITY           SKY/WX    TMP DP  RH WIND       PRES   REMARKS
BISMARCK       FAIR      25  23  92 CALM      30.00S
DICKINSON      CLOUDY    23  21  92 E5        29.95R WCI  17
GARRISON       NOT AVBL
HETTINGER ARPT CLOUDY    27  25  92 NE7       29.96R WCI  19
$$

NDZ004>008-012>016-024-026-027-054-230900-
NORTHEAST NORTH DAKOTA

CITY           SKY/WX    TMP DP  RH WIND       PRES   REMARKS
GRAND FORKS    MOCLDY    28  21  75 N7        29.98S
GRND FRKS AFB  PTCLDY    27  22  84 N8        29.99S WCI  18
DEVILS LAKE    FAIR      25  22  88 NW9       29.97S WCI  15
$$

NDZ022-023-025-028>030-036>039-047>053-230900-
SOUTHEAST NORTH DAKOTA

CITY           SKY/WX    TMP DP  RH WIND       PRES   REMARKS
FARGO          CLEAR     30  26  85 N12       29.95F
JAMESTOWN      FAIR      25  22  88 NW7       29.97R WCI  17
$$




USA.gov is the U.S. government's official web portal to all federal, state and local government web resources and services.